Regional Weather Roundup
Issued by NWS

Home | Current Version | Previous Version | Text Only | Print | Product List | Glossary Off
Versions: 1 2 3 4 5 6 7 8 9 10 11 12 13 14 15 16 17 18 19 20 21 22 23 24 25 26 27 28 29 30 31 32 33 34 35 36 37 38 39 40 41 42 43 44 45 46 47 48 49 50

927
ASUS43 KDTX 082301
RWRMI
MICHIGAN HOURLY REGIONAL WEATHER ROUNDUP
NATIONAL WEATHER SERVICE DETROIT/PONTIAC MI
600 PM EST MON FEB 08 2016

NOTE: "FAIR" INDICATES FEW OR NO CLOUDS BELOW 12,000 FEET WITH NO
SIGNIFICANT WEATHER AND/OR OBSTRUCTION TO VISIBILITY.

MIZ047>049-052>055-059>063-066>070-074>076-081>083-090000-
SOUTHEAST LOWER MICHIGAN

CITY           SKY/WX    TMP DP  RH WIND       PRES   REMARKS
ADRIAN         PTCLDY    36  25  64 W10       29.61R WCI  28
ALMA           MOCLDY    37  27  69 W6        29.59S WCI  32
ANN ARBOR      CLOUDY    36  29  75 NW7       29.59R WCI  30
BAD AXE        CLOUDY    37  32  79 W6        29.56S WCI  33
CARO           CLOUDY    37  32  81 CALM      29.56S
DETROIT CITY   CLOUDY    39  27  62 NW8       29.58R WCI  33
DETROIT        CLOUDY    40  27  59 W7        29.59R
FLINT          CLOUDY    39  29  67 NW6       29.58S WCI  35
GROSSE ILE     CLOUDY    39  28  65 CALM      29.57R
HILLSDALE      CLOUDY    34  26  73 W7        29.60R WCI  28
HOWELL         CLOUDY    38  28  67 NW7       29.58R WCI  32

CITY           SKY/WX    TMP DP  RH WIND       PRES   REMARKS
JACKSON        MOCLDY    36  24  62 W8        29.59S WCI  30
LAMBERTVILLE   CLOUDY    37  29  74 W10G16    29.61R WCI  30
LANSING        CLOUDY    38  26  62 W7        29.60R WCI  33
LAPEER         CLOUDY    37  29  72 CALM      29.57S
MASON          MOCLDY    37  27  69 W5        29.59R WCI  33
MONROE         LGT RAIN  36  33  88 NW7       29.59R WCI  30
MT. CLEMENS    CLOUDY    38  30  73 N5        29.55S WCI  34
PONTIAC        CLOUDY    37  26  64 NW7       29.56S WCI  32
PORT HOPE        N/A     33  32  96 W3        29.55F
PORT HURON     LGT RAIN  36  34  93 W5        29.57R WCI  32
TRI CITIES     CLOUDY    40  27  59 SW6       29.58S
MIDLAND        CLOUDY    40  24  53 W5        29.57S
TROY           CLOUDY    40  28  61 NW8       29.59R WCI  34
SAGINAW HB     PTCLDY    37  32  81 W5        29.58R WCI  34
$$
MIZ043>046-050>051-056>058-064>065-071>073-077>080-090000-
SOUTHWEST LOWER MICHIGAN

CITY           SKY/WX    TMP DP  RH WIND       PRES   REMARKS
BATTLE CREEK   CLOUDY    33  29  85 W9        29.62S WCI  25
BENTON HARBOR  LGT SNOW  31  28  89 W12       29.68R VSB 3/4 WCI  22
BIG RAPIDS     PTCLDY    36  23  59 N3        29.59R
COLDWATER      CLOUDY    33  28  83 W12       29.63R WCI  24
FREMONT        CLOUDY    34  31  91 NW7       29.61R WCI  28
HOLLAND        LGT SNOW  33  31  92 NW10      29.65R FOG     WCI  25
GRAND RAPIDS   MOCLDY    36  30  79 W8        29.61R WCI  30
IONIA          CLOUDY    35  29  79 W12       29.59S WCI  26
KALAMAZOO      LGT SNOW  33  29  85 SW7       29.63S FOG     WCI  27
LUDINGTON      CLOUDY    35  32  88 N10       29.62S WCI  27
MARSHALL       PTCLDY    33  28  82 W8        29.61R WCI  26
MOUNT PLEASANT CLOUDY    38  25  59 W5        29.58S WCI  35
MUSKEGON       CLOUDY    35  30  82 NW8       29.64R WCI  29
SOUTH HAVEN    CLOUDY    32  30  92 NW9       29.67R WCI  24
$$
MIZ016>042-090000-
NORTHERN LOWER MICHIGAN

CITY           SKY/WX    TMP DP  RH WIND       PRES   REMARKS
ALPENA         CLOUDY    35  32  88 N10       29.59R WCI  27
BEAVER ISLAND  CLOUDY    29  25  84 NW10G17   29.66R WCI  19
BELLAIRE       CLOUDY    34  30  86 N8        29.63R WCI  27
CADILLAC       MOCLDY    35  28  76 NW8       29.57S WCI  29
CHARLEVOIX     CLOUDY    32  28  86 N15G22    29.67R WCI  21
FRANKFORT      CLOUDY    32  29  88 N7G16     29.65R FOG     WCI  26
GAYLORD        CLOUDY    35  30  82 NW5       29.57R WCI  31
GRAYLING       MOCLDY    36  29  76 NW8       29.58R WCI  30
HARBOR SPRINGS CLOUDY    33  29  88 NW6       29.63R WCI  27
HOUGHTON LAKE  PTCLDY    36  25  64 NW3       29.57R
MANISTEE       CLOUDY    34  28  80 N10G16    29.63R WCI  26
OSCODA         DRIZZLE   35  32  89 CALM      29.57S
PELLSTON       CLOUDY    34  30  85 NW10      29.62R WCI  26
ROGERS CITY    CLOUDY    34  32  92 N3        29.61S FOG
TRAVERSE CITY  CLOUDY    35  29  78 N12       29.62R WCI  27
$$
MIZ007>008-015-090000-
EASTERN UPPER MICHIGAN

CITY           SKY/WX    TMP DP  RH WIND       PRES   REMARKS
KINROSS        CLOUDY    30  28  93 NW16      29.63R WCI  19
MACKINAC ISLAN CLOUDY    32  32 100 N8        29.62R WCI  25
NEWBERRY       CLOUDY    26  23  88 NW9       29.66R WCI  16
S. S. MARIE    CLOUDY    31  26  82 NW16      29.63R WCI  20
$$
MIZ004>006-011>014-085-090000-
CENTRAL UPPER MICHIGAN

CITY           SKY/WX    TMP DP  RH WIND       PRES   REMARKS
MANISTIQUE     CLOUDY    23  17  78 NW10G23   29.69R WCI  12
ESCANABA       CLOUDY    23  16  74 N9        29.72R WCI  13
MENOMINEE      CLOUDY    25  18  74 N8        29.71R WCI  16
SAWYER-GWINN   FLURRIES  16  10  79 N13G18    29.70R WCI   2
$$
MIZ001>003-009>011-084-090000-
WESTERN UPPER MICHIGAN

CITY           SKY/WX    TMP DP  RH WIND       PRES   REMARKS
IRON MOUNTAIN  LGT SNOW  18  11  74 NW22G28   29.71R VSB 1   WCI   1
HOUGHTON       SNOW      13   7  77 NW14      29.76R VSB 1/2 WCI  -2
COPPER HARBOR    N/A     17  12  80 N25G33    29.76R WCI  -1
IRONWOOD       CLOUDY    12  10  92 NW13      29.79S WCI  -3
$$

ABBREVIATIONS USED IN REMARKS
   TC - TEMPERATURE IN CELSIUS
  WCI - WIND CHILL INDEX
   HX - HEAT INDEX
  VSB - VISIBILITY





USA.gov is the U.S. government's official web portal to all federal, state and local government web resources and services.